Weather History for KSDM - April, 2014

Change the Weather History Date:

Wednesday, April 30, 2014

  Actual Average Record
Temperature  
Mean Temperature 76 °F -  
Max Temperature 93 °F 69 °F 93 °F (2014)
Min Temperature 60 °F 49 °F 46 °F (2011)
Cooling Degree Days 12    
Growing Degree Days 26 (Base 50)    
Moisture  
Dew Point 9 °F    
Average Humidity 10    
Maximum Humidity 21    
Minimum Humidity 4    
Precipitation  
Precipitation 0.00 in - - ()
Sea Level Pressure  
Sea Level Pressure 29.94 in    
Wind  
Wind Speed 7 mph (NE)    
Max Wind Speed 23 mph    
Max Gust Speed 33 mph    
Visibility 10 miles    
Events      
Averages and records for this station are not official NWS values.
T = Trace of Precipitation, MM = Missing Value Source: NWS Daily Summary

Daily Weather History Graph

Daily Weather History Graph

Search for Another Location

Airport or City:

Trip Planner

Search our weather history database for the weather conditions in past years. The results will help you decide how hot, cold, wet, or windy it might be!

Date:

Astronomy

Apr. 30, 2014 Rise Set
Actual Time 6:01 AM PDT 7:28 PM PDT
Civil Twilight 5:35 AM PDT 7:54 PM PDT
Nautical Twilight 5:04 AM PDT 8:26 PM PDT
Astronomical Twilight 4:32 AM PDT 8:58 PM PDT
Moon 7:08 AM PDT (4/30) 9:09 PM PDT (4/30)
Length of Visible Light 14h 18m
Length of Day
13h 26m
Waxing Crescent, 3% of the Moon is Illuminated
Apr 30
Waxing Crescent
May 6
First Quarter
May 14
Full
May 21
Last Quarter
May 28
New

Hourly Weather History & Observations

Time (PDT) Temp. Dew Point Humidity Pressure Visibility Wind Dir Wind Speed Gust Speed Precip Events Conditions
12:53 AM 66.9 °F 25.0 °F 21% 29.98 in 10.0 mi Calm Calm - N/A   Clear
1:53 AM 63.0 °F 21.9 °F 21% 29.96 in 10.0 mi NE 6.9 mph - N/A   Clear
2:53 AM 62.1 °F 17.1 °F 18% 29.96 in 10.0 mi East 4.6 mph - N/A   Clear
3:53 AM 60.1 °F 19.9 °F 21% 29.96 in 10.0 mi ESE 6.9 mph - N/A   Clear
4:53 AM 66.0 °F 14.0 °F 13% 29.95 in 10.0 mi Calm Calm - N/A   Clear
5:53 AM 62.1 °F 14.0 °F 15% 29.96 in 10.0 mi ENE 5.8 mph - N/A   Clear
6:53 AM 66.9 °F 15.1 °F 14% 29.98 in 10.0 mi ESE 9.2 mph - N/A   Clear
7:53 AM 77.0 °F 10.4 °F 8% 30.00 in 10.0 mi East 9.2 mph - N/A   Clear
8:53 AM 82.0 °F 6.1 °F 6% 29.97 in 10.0 mi NE 10.4 mph 21.9 mph N/A   Clear
9:53 AM 82.9 °F 1.0 °F 4% 29.97 in 10.0 mi ENE 23.0 mph 33.4 mph N/A   Clear
10:53 AM 84.9 °F 1.0 °F 4% 29.97 in 10.0 mi NE 17.3 mph 26.5 mph N/A   Clear
11:53 AM 88.0 °F -0.0 °F 4% 29.94 in 10.0 mi NE 15.0 mph 26.5 mph N/A   Clear
12:53 PM 89.1 °F -0.9 °F 4% 29.94 in 10.0 mi NNE 8.1 mph - N/A   Clear
1:53 PM 91.0 °F -0.0 °F 4% 29.92 in 10.0 mi Variable 6.9 mph - N/A   Clear
2:53 PM 91.0 °F 7.0 °F 4% 29.91 in 10.0 mi WNW 6.9 mph - N/A   Clear
3:53 PM 93.0 °F -0.0 °F 4% 29.89 in 10.0 mi Variable 4.6 mph - N/A   Clear
4:53 PM 91.9 °F -0.9 °F 4% 29.89 in 10.0 mi North 9.2 mph - N/A   Clear
5:53 PM 90.0 °F -0.9 °F 4% 29.89 in 10.0 mi NNE 13.8 mph 20.7 mph N/A   Clear
6:53 PM 86.0 °F 1.9 °F 4% 29.90 in 10.0 mi NNE 10.4 mph - N/A   Clear
7:53 PM 81.0 °F 5.0 °F 5% 29.92 in 10.0 mi NE 6.9 mph - N/A   Clear
8:53 PM 75.9 °F 8.1 °F 7% 29.94 in 10.0 mi ENE 5.8 mph - N/A   Clear
9:53 PM 73.9 °F 30.0 °F 20% 29.95 in 10.0 mi Calm Calm - N/A   Clear
10:53 PM 73.9 °F 10.9 °F 9% 29.95 in 10.0 mi Variable 3.5 mph - N/A   Clear
11:53 PM 69.1 °F 12.9 °F 11% 29.96 in 10.0 mi ENE 4.6 mph - N/A   Clear